Ireland West Airport Knock, Ireland

2:35 AM IST on August 24, 2016 (GMT +0100)
Connaught

Weather History for EIKN - October, 2011

Change the Weather History Date:

Wednesday, October 19, 2011

  Actual Average Record
Temperature  
Mean Temperature 42 °F -  
Max Temperature 48 °F - - ()
Min Temperature 37 °F - - ()
Degree Days  
Heating Degree Days 22    
Moisture  
Dew Point 38 °F    
Average Humidity 81    
Maximum Humidity 100    
Minimum Humidity 62    
Precipitation  
Precipitation 0.03 in - - ()
Sea Level Pressure  
Sea Level Pressure 30.19 in    
Wind  
Wind Speed 10 mph ()    
Max Wind Speed 16 mph    
Max Gust Speed 29 mph    
Visibility 6.5 miles    
Events Rain    
T = Trace of Precipitation, MM = Missing Value Source: Averaged Metar Reports

Daily Weather History Graph

Daily Weather History Graph

Search for Another Location

Airport or City:

Trip Planner

Search our weather history database for the weather conditions in past years. The results will help you decide how hot, cold, wet, or windy it might be!

Date:

Astronomy

Oct. 19, 2011 Rise Set
Actual Time 8:09 AM IST 6:29 PM IST
Civil Twilight 7:33 AM IST 7:05 PM IST
Nautical Twilight 6:52 AM IST 7:46 PM IST
Astronomical Twilight 6:11 AM IST 8:27 PM IST
Moon 11:36 PM IST (10/19) 2:59 PM IST (10/19)
Length of Visible Light 11h 32m
Length of Day
10h 20m
Waning Gibbous, 57% of the Moon is Illuminated
Oct 19
Waning Gibbous
Oct 20
Last Quarter
Oct 26
New
Nov 2
First Quarter
Nov 10
Full

Hourly Weather History & Observations

Time (IST) Temp. Windchill Dew Point Humidity Pressure Visibility Wind Dir Wind Speed Gust Speed Precip Events Conditions
1:00 AM 41 °F - 38 °F 84% 30.04 in - West 8.9 mph - -  
6:00 AM 39.2 °F 32.0 °F 37.4 °F 93% 30.06 in 6.2 mi WNW 11.5 mph - N/A   Scattered Clouds
6:30 AM 39.2 °F 32.5 °F 37.4 °F 93% 30.06 in 6.2 mi WNW 10.4 mph - N/A Rain Light Rain Showers
7:00 AM 40 °F - 38 °F 91% 30.11 in 12 mi WNW 8.9 mph - - Rain Light Rain Showers
7:00 AM 39.2 °F 33.0 °F 39.2 °F 100% 30.06 in 6.2 mi WNW 9.2 mph - N/A   Scattered Clouds
7:30 AM 39.2 °F 32.5 °F 37.4 °F 93% 30.06 in 6.2 mi WNW 10.4 mph - N/A   Partly Cloudy
8:00 AM 39.2 °F 31.6 °F 37.4 °F 93% 30.09 in 6.2 mi West 12.7 mph - N/A   Partly Cloudy
8:30 AM 39.2 °F 32.0 °F 37.4 °F 93% 30.12 in 6.2 mi WNW 11.5 mph - N/A   Scattered Clouds
9:00 AM 41.0 °F 33.9 °F 35.6 °F 81% 30.12 in 6.2 mi WNW 12.7 mph - N/A   Mostly Cloudy
9:30 AM 41.0 °F 34.3 °F 37.4 °F 87% 30.12 in 3.7 mi WNW 11.5 mph - N/A Rain Light Rain Showers
10:00 AM 41.0 °F 35.8 °F 39.2 °F 93% 30.15 in 6.2 mi WNW 8.1 mph - N/A   Mostly Cloudy
10:30 AM 42.8 °F 37.0 °F 39.2 °F 87% 30.15 in 6.2 mi West 10.4 mph - N/A   Scattered Clouds
11:00 AM 42.8 °F 35.8 °F 39.2 °F 87% 30.18 in 6.2 mi WNW 13.8 mph - N/A   Mostly Cloudy
11:30 AM 44.6 °F 38.4 °F 37.4 °F 76% 30.18 in 6.2 mi NW 12.7 mph - N/A   Scattered Clouds
12:00 PM 46.4 °F 40.4 °F 39.2 °F 76% 30.18 in 6.2 mi NW 13.8 mph - N/A   Scattered Clouds
12:30 PM 44.6 °F 37.4 °F 39.2 °F 81% 30.21 in 6.2 mi NW 16.1 mph - N/A   Scattered Clouds
1:00 PM 45 °F - 38 °F 68% 30.25 in 25 mi NW 15.7 mph - -   Partly Cloudy
1:00 PM 44.6 °F 37.4 °F 37.4 °F 76% 30.21 in 6.2 mi NW 16.1 mph - N/A   Mostly Cloudy
1:30 PM 46.4 °F 40.1 °F 37.4 °F 71% 30.24 in 6.2 mi WNW 15.0 mph - N/A   Mostly Cloudy
2:00 PM 46.4 °F 39.8 °F 37.4 °F 71% 30.24 in 6.2 mi NW 16.1 mph 28.8 mph N/A Rain Light Rain Showers
2:30 PM 46.4 °F 40.1 °F 37.4 °F 71% 30.24 in 6.2 mi NW 15.0 mph - N/A   Mostly Cloudy
3:00 PM 46.4 °F 40.7 °F 39.2 °F 76% 30.24 in 6.2 mi NNW 12.7 mph - N/A   Mostly Cloudy
3:30 PM 46.4 °F 40.4 °F 37.4 °F 71% 30.24 in 6.2 mi WNW 13.8 mph - N/A   Scattered Clouds
4:00 PM 48.2 °F - 35.6 °F 62% 30.24 in 6.2 mi NW 13.8 mph 25.3 mph N/A   Scattered Clouds
4:30 PM 46.4 °F 41.1 °F 35.6 °F 66% 30.24 in 6.2 mi NW 11.5 mph - N/A   Scattered Clouds
5:00 PM 46.4 °F 41.1 °F 37.4 °F 71% 30.27 in 6.2 mi NNW 11.5 mph - N/A   Scattered Clouds
5:30 PM 44.6 °F 38.1 °F 39.2 °F 81% 30.27 in 6.2 mi NNW 13.8 mph - N/A Rain Light Rain Showers
6:00 PM 44.6 °F 39.2 °F 37.4 °F 76% 30.27 in 6.2 mi WNW 10.4 mph - N/A Rain Light Rain Showers
6:30 PM 42.8 °F 37.5 °F 37.4 °F 81% 30.30 in 6.2 mi WNW 9.2 mph - N/A   Scattered Clouds
7:00 PM 43 °F - 38 °F 77% 30.33 in 12 mi West 6.7 mph - - Rain Light Rain Showers
7:00 PM 42.8 °F 38.6 °F 39.2 °F 87% 30.30 in 6.2 mi West 6.9 mph - N/A   Mostly Cloudy